Tracking 28794 objects as of 19-Apr-2024
HD Live streaming from Space Station
objects crossing your sky now

COSMOS 1375 DEB

Track COSMOS 1375 DEB now!
10-day predictions


NORAD ID: 16383
Int'l Code: 1982-055X
Perigee: 955.2 km
Apogee: 1,021.8 km
Inclination: 65.8 °
Period: 104.7 minutes
Semi major axis: 7359 km
RCS: 0.1937 m2 (medium)
Launch date: June 6, 1982
Source: Commonwealth of Independent States (former USSR) (CIS)
Launch site: PLESETSK MISSILE AND SPACE COMPLEX (PKMTR)

Note: This is SATELLITE DEBRIS
Your satellite tracking list
Your tracking list is empty




NASA's NSSDC Master Catalog

Two Line Element Set (TLE):
1 16383U 82055X   24110.33025374  .00000908  00000-0  10255-2 0  9998
2 16383  65.8295  71.4430 0045234  14.7414 148.1130 13.75092611926602
Source of the keplerian elements: AFSPC